Location: New Plymouth
(39.0670°S, 174.0830°E)
Time: 13:51:20
(UTC+12:00)

ISS - Visible Passes

Search period start: 01 July 2022 00:00
Search period end: 11 July 2022 00:00
Orbit: 414 x 420 km, 51.6° (Epoch: 30 June)

Date Brightness Start Highest point End Pass type
(mag) Time Alt. Az. Time Alt. Az. Time Alt. Az.
01 Jul -1.1 18:58:11 10° SSW 18:58:46 12° S 18:58:46 12° S visible
02 Jul -1.5 18:10:18 10° SSW 18:11:49 12° SSE 18:12:40 12° SSE visible
03 Jul -1.7 18:58:05 10° SSW 18:59:35 19° S 18:59:35 19° S visible
04 Jul -2.1 18:10:06 10° SSW 18:12:37 19° SSE 18:13:41 17° SE visible
04 Jul -0.6 19:46:19 10° SW 19:46:37 12° SW 19:46:37 12° SW visible
05 Jul -3.3 18:58:06 10° SW 19:00:53 49° SSW 19:00:53 49° SSW visible
06 Jul -3.1 18:09:58 10° SW 18:13:10 36° SSE 18:15:21 17° E visible
06 Jul -0.9 19:46:59 10° WSW 19:48:20 18° W 19:48:20 18° W visible
07 Jul -2.6 18:58:24 10° WSW 19:01:40 43° NW 19:03:08 26° NNE visible
08 Jul -3.7 18:10:01 10° SW 18:13:26 82° NW 18:16:49 10° NE visible
09 Jul -0.6 18:59:34 10° W 19:01:33 15° NW 19:03:32 10° NNW visible
10 Jul -1.3 18:10:32 10° WSW 18:13:25 26° NW 18:16:16 10° N visible
